TimeIST,TemperatureF,Dew PointF,Humidity,Sea Level PressureIn,VisibilityMPH,Wind Direction,Wind SpeedMPH,Gust SpeedMPH,PrecipitationIn,Events,Conditions,WindDirDegrees,DateUTC
12:10 AM,75.2,64.4,69,29.89,1.4,Calm,Calm,-,N/A,,Haze,0,2012-11-27 18:40:00
12:40 AM,75.2,66.2,73,29.89,1.4,Calm,Calm,-,N/A,,Haze,0,2012-11-27 19:10:00
1:10 AM,73.4,64.4,73,29.89,1.1,Calm,Calm,-,N/A,,Haze,0,2012-11-27 19:40:00
1:40 AM,73.4,64.4,73,29.89,0.9,Calm,Calm,-,N/A,,Mist,0,2012-11-27 20:10:00
2:10 AM,73.4,64.4,73,29.89,0.9,Calm,Calm,-,N/A,,Mist,0,2012-11-27 20:40:00
2:30 AM,68,63,80,29.90,1,Calm,Calm,,,,Haze,,2012-11-27 21:00:00
3:10 AM,77.0,66.2,69,29.89,1.4,North,4.6,-,N/A,,Haze,350,2012-11-27 21:40:00
3:40 AM,77.0,64.4,65,29.89,1.6,NNE,5.8,-,N/A,,Haze,20,2012-11-27 22:10:00
4:40 AM,75.2,64.4,69,29.89,1.9,NNW,4.6,-,N/A,,Haze,330,2012-11-27 23:10:00
5:10 AM,75.2,66.2,73,29.89,1.9,North,4.6,-,N/A,,Haze,10,2012-11-27 23:40:00
5:30 AM,67,63,81,29.88,1,Calm,Calm,,,,Haze,,2012-11-28 00:00:00
5:40 AM,75.2,66.2,73,29.89,1.9,North,4.6,-,N/A,,Haze,360,2012-11-28 00:10:00
6:10 AM,75.2,68.0,78,29.89,1.9,NNE,4.6,-,N/A,,Mist,20,2012-11-28 00:40:00
6:40 AM,75.2,68.0,78,29.89,1.2,North,4.6,-,N/A,,Mist,10,2012-11-28 01:10:00
7:10 AM,75.2,68.0,78,29.92,1.1,ENE,3.5,-,N/A,,Partly Cloudy,60,2012-11-28 01:40:00
7:40 AM,75.2,68.0,78,29.92,1.1,NE,3.5,-,N/A,,Mist,50,2012-11-28 02:10:00
8:10 AM,77.0,64.4,65,29.92,1.1,East,3.5,-,N/A,,Mist,100,2012-11-28 02:40:00
8:30 AM,74,66,71,29.93,1,Calm,Calm,,,,Smoke,,2012-11-28 03:00:00
8:40 AM,78.8,64.4,61,29.95,1.4,Calm,Calm,-,N/A,,Smoke,0,2012-11-28 03:10:00
9:10 AM,78.8,60.8,54,29.95,1.6,NNW,4.6,-,N/A,,Smoke,330,2012-11-28 03:40:00
9:40 AM,80.6,59.0,48,29.95,1.7,NNW,4.6,-,N/A,,Smoke,330,2012-11-28 04:10:00
10:40 AM,84.2,60.8,45,29.95,1.9,NNE,4.6,-,N/A,,Smoke,30,2012-11-28 05:10:00
11:10 AM,86.0,59.0,40,29.95,1.9,ENE,4.6,-,N/A,,Smoke,60,2012-11-28 05:40:00
11:30 AM,85,60,33,29.94,1,NNW,3.5,,,,Smoke,340,2012-11-28 06:00:00
11:40 AM,86.0,60.8,43,29.92,1.7,North,3.5,-,N/A,,Smoke,360,2012-11-28 06:10:00
12:10 PM,89.6,60.8,38,29.92,1.6,NNE,6.9,-,N/A,,Smoke,30,2012-11-28 06:40:00
12:40 PM,87.8,66.2,49,29.89,1.7,WSW,9.2,-,N/A,,Smoke,240,2012-11-28 07:10:00
1:10 PM,87.8,66.2,49,29.89,1.7,WSW,8.1,-,N/A,,Smoke,250,2012-11-28 07:40:00
1:40 PM,89.6,66.2,46,29.86,1.7,WNW,8.1,-,N/A,,Smoke,300,2012-11-28 08:10:00
2:10 PM,87.8,66.2,49,29.83,1.7,West,9.2,-,N/A,,Smoke,280,2012-11-28 08:40:00
2:30 PM,88,67,40,29.84,1,NW,6.9,,,,Smoke,320,2012-11-28 09:00:00
2:40 PM,87.8,66.2,49,29.83,1.7,WNW,9.2,-,N/A,,Smoke,290,2012-11-28 09:10:00
3:10 PM,86.0,66.2,51,29.83,1.7,WNW,8.1,-,N/A,,Smoke,290,2012-11-28 09:40:00
3:40 PM,86.0,64.4,48,29.83,1.7,WNW,8.1,-,N/A,,Smoke,300,2012-11-28 10:10:00
4:10 PM,86.0,66.2,51,29.83,1.7,WNW,6.9,-,N/A,,Smoke,290,2012-11-28 10:40:00
4:40 PM,86.0,64.4,48,29.83,1.7,NNW,6.9,-,N/A,,Smoke,330,2012-11-28 11:10:00
5:30 PM,82,64,44,29.83,1,NW,4.6,,,,Smoke,320,2012-11-28 12:00:00
5:40 PM,82.4,64.4,54,29.83,1.9,NNW,6.9,-,N/A,,Smoke,330,2012-11-28 12:10:00
6:10 PM,82.4,62.6,51,29.83,1.5,NW,5.8,-,N/A,,Smoke,320,2012-11-28 12:40:00
6:40 PM,80.6,64.4,58,29.86,1.4,WNW,4.6,-,N/A,,Smoke,300,2012-11-28 13:10:00
7:10 PM,80.6,64.4,58,29.86,1.4,NW,5.8,-,N/A,,Smoke,310,2012-11-28 13:40:00
7:40 PM,80.6,64.4,58,29.86,1.4,North,4.6,-,N/A,,Smoke,350,2012-11-28 14:10:00
8:10 PM,78.8,64.4,61,29.89,1.6,NNW,5.8,-,N/A,,Smoke,340,2012-11-28 14:40:00
8:30 PM,76,64,59,29.87,1,Calm,Calm,,,,Smoke,,2012-11-28 15:00:00
8:40 PM,78.8,64.4,61,29.89,1.6,North,4.6,-,N/A,,Smoke,350,2012-11-28 15:10:00
9:10 PM,77.0,66.2,69,29.89,1.6,NNE,4.6,-,N/A,,Smoke,20,2012-11-28 15:40:00
9:40 PM,77.0,64.4,65,29.89,1.6,ENE,3.5,-,N/A,,Smoke,60,2012-11-28 16:10:00
10:10 PM,78.8,64.4,61,29.89,1.6,NNE,3.5,-,N/A,,Smoke,20,2012-11-28 16:40:00
10:40 PM,77.0,64.4,65,29.89,1.6,NNE,3.5,-,N/A,,Haze,30,2012-11-28 17:10:00
11:10 PM,77.0,62.6,61,29.89,1.7,North,4.6,-,N/A,,Haze,10,2012-11-28 17:40:00
11:30 PM,68,64,82,29.88,1,Calm,Calm,,,,Haze,,2012-11-28 18:00:00
11:40 PM,77.0,64.4,65,29.86,1.7,Calm,Calm,-,N/A,,Haze,0,2012-11-28 18:10:00